Content
SEND FEEDBACK

Daily
Averages
Monthly
Summary
United States of America

WESTMORELAND, KANSAS


Home > North America > United States > Kansas
Elevation: 1493 feet     Latitude: 39 30N     Longitude: 096 24W

WEATHER
 
SELECT A DAY
Number of Records: 201,802;   Date Range: 1/1/95 - 12/18/14
 
SHARE

PRINT THIS DATA

[ ← Previous Day ]
WEATHER ALMANAC - JANUARY 31, 2013
[ Next Day → ]
[ °C ]   °F
Weather ElementAverageHighLow
Temperature14.7 °F19.9 °F (6:52 am)1 °F (10:52 pm)
Dewpoint6.4 °F15.1 °F (5:52 am)-4 °F (10:52 pm)
Humidity70.5 %88 % (1:52 am)52 % (2:52 pm)
Barometer30.29 in30.54 in (9:52 pm)29.99 in (1:52 am)
Wind Speed4.3 mph12.7 mph (11:52 am)
Wind Gust23 mph (2:52 pm)
Weather ElementAverage
Visibility9.9 mi
Wind DirectionSE (136.4 °)

Weather ElementTotal
Precipitation---
Heating Degree Days54.6 (Base 65)
Averaged from 22 records on January 31, 2013
WEATHER CONDITIONS BREAKOUT
WIND DIRECTION BREAKOUT
WEATHER BY HOUR - JANUARY 31, 2013
[ °C ]   °F
Local TimeTemperatureDewpointHumidityBarometerVisibilityWind DirectionWind SpeedGust SpeedPrecipitationEventsConditions
1:52 AM14.0 °F10.9 °F88 %29.99 in10.0 miCalmOvercast
2:52 AM14.0 °F10.9 °F88 %29.99 in9.0 miCalmClear
3:52 AM16.0 °F12.9 °F88 %30.01 in9.0 miCalmClear
4:52 AM18.0 °F12.9 °F81 %30.02 in10.0 miCalmOvercast
5:52 AM19.0 °F15.1 °F85 %30.06 in10.0 miCalmOvercast
6:52 AM19.9 °F14.0 °F78 %30.09 in10.0 miNNE (30°)5.8 mphMostly Cloudy
7:52 AM19.9 °F12.9 °F74 %30.14 in10.0 miNNE (20°)9.2 mphOvercast
8:52 AM19.0 °F9.0 °F65 %30.20 in10.0 miNorth (350°)4.6 mphOvercast
9:52 AM19.0 °F8.1 °F62 %30.24 in9.0 miNorth (10°)5.8 mph0.00 inSnowLight Snow
10:52 AM19.9 °F9.0 °F62 %30.31 in10.0 miVariable6.9 mph0.00 inOvercast
11:52 AM19.9 °F8.1 °F60 %30.35 in10.0 miNorth (350°)12.7 mph21.9 mphMostly Cloudy
12:52 PM19.9 °F7.0 °F57 %30.37 in10.0 miNNW (340°)9.2 mph19.6 mphOvercast
2:52 PM19.0 °F3.9 °F52 %30.38 in10.0 miNorth (350°)9.2 mph23.0 mphMostly Cloudy
3:52 PM18.0 °F3.9 °F54 %30.40 in10.0 miNorth (350°)10.4 mph19.6 mphScattered Clouds
4:52 PM18.0 °F3.9 °F54 %30.41 in10.0 miNNW (340°)8.1 mphMostly Cloudy
5:52 PM15.1 °F3.0 °F59 %30.43 in10.0 miCalmClear
6:52 PM12.0 °F1.9 °F64 %30.45 in10.0 miCalmClear
7:52 PM8.1 °F0.0 °F70 %30.48 in10.0 miWest (260°)4.6 mphClear
8:52 PM7.0 °F0.0 °F73 %30.51 in10.0 miNNW (340°)3.5 mphClear
9:52 PM5.0 °F-0.9 °F76 %30.54 in10.0 miCalmClear
10:52 PM1.0 °F-4.0 °F79 %30.53 in10.0 miCalmClear
11:52 PM1.9 °F-2.0 °F83 %30.52 in10.0 miWest (260°)3.5 mphClear
Hourly data recorded from KMHK, located miles away from Westmoreland, Kansas







STORIES FROM OUR PARTNERS